When you browse on this site, cookies collect data to enhance your experience and personalize the content and advertising you see.
Visit our Privacy Policy to learn more. By continuing to use the site, you agree to this use of cookies and data.
  • Em Portugal
  • Lista de países
  • Para 7 dias
  • Temperatura da água
  • Mapas de satélite
  • Mapa do tempo
  • Widgets de tempo
  • user-avatar
    Iniciar Sessão

    Previsão horária em Trubcheva

    Hoje, 18 Fevereiro, Segunda-feira

    Tempo Temperatura Precipitação Vento Pressão Humidade
    00:00 -6°C° 0 mm 7 m/s 735 mmHg 81%
    01:00 -6°C° 0 mm 6 m/s 736 mmHg 81%
    02:00 -6°C° 0 mm 6 m/s 737 mmHg 81%
    03:00 -8°C° 0 mm 6 m/s 737 mmHg 83%
    04:00 -8°C° 0 mm 6 m/s 738 mmHg 84%
    05:00 -9°C° 0 mm 6 m/s 738 mmHg 85%
    06:00 -9°C° 0 mm 6 m/s 739 mmHg 86%
    07:00 -9°C° 0 mm 6 m/s 740 mmHg 86%
    08:00 -10°C° 0 mm 6 m/s 740 mmHg 87%
    09:00 -9°C° 0 mm 6 m/s 741 mmHg 85%
    10:00 -8°C° 0 mm 6 m/s 741 mmHg 83%
    11:00 -8°C° 0 mm 7 m/s 742 mmHg 81%
    12:00 -8°C° 0 mm 6 m/s 742 mmHg 80%
    13:00 -8°C° 0 mm 6 m/s 743 mmHg 80%
    14:00 -8°C° 0 mm 6 m/s 743 mmHg 80%
    15:00 -8°C° 0 mm 5 m/s 743 mmHg 82%
    16:00 -9°C° 0 mm 4 m/s 744 mmHg 84%
    17:00 -9°C° 0 mm 4 m/s 744 mmHg 85%
    18:00 -9°C° 0 mm 3 m/s 745 mmHg 87%
    19:00 -10°C° 0 mm 3 m/s 745 mmHg 88%
    20:00 -12°C° 0 mm 3 m/s 745 mmHg 89%
    21:00 -12°C° 0 mm 3 m/s 746 mmHg 90%
    22:00 -12°C° 0 mm 2 m/s 746 mmHg 90%
    23:00 -12°C° 0 mm 2 m/s 746 mmHg 91%

    Amanhã, 19 Fevereiro, Terça-feira

    Tempo Temperatura Precipitação Vento Pressão Humidade
    00:00 -11°C° 0 mm 1 m/s 747 mmHg 91%
    01:00 -11°C° 0 mm 1 m/s 747 mmHg 91%
    02:00 -12°C° 0 mm 0 m/s 747 mmHg 91%
    03:00 -12°C° 0 mm 1 m/s 747 mmHg 90%
    04:00 -12°C° 0 mm 1 m/s 747 mmHg 90%
    05:00 -13°C° 0 mm 2 m/s 747 mmHg 89%
    06:00 -13°C° 0 mm 2 m/s 747 mmHg 89%
    07:00 -13°C° 0 mm 2 m/s 747 mmHg 88%
    08:00 -13°C° 0 mm 3 m/s 747 mmHg 88%
    09:00 -12°C° 0 mm 3 m/s 747 mmHg 87%
    10:00 -10°C° 0 mm 4 m/s 746 mmHg 85%
    11:00 -9°C° 0 mm 4 m/s 746 mmHg 84%
    12:00 -8°C° 0 mm 5 m/s 746 mmHg 84%
    13:00 -7°C° 0 mm 5 m/s 745 mmHg 84%
    14:00 -6°C° 0 mm 5 m/s 745 mmHg 83%
    15:00 -7°C° 0 mm 5 m/s 744 mmHg 84%
    16:00 -7°C° 0 mm 5 m/s 744 mmHg 85%
    17:00 -7°C° 0 mm 5 m/s 743 mmHg 85%
    18:00 -8°C° 0 mm 5 m/s 743 mmHg 86%
    19:00 -8°C° 0 mm 5 m/s 743 mmHg 86%
    20:00 -9°C° 0 mm 6 m/s 742 mmHg 87%
    21:00 -10°C° 0 mm 6 m/s 742 mmHg 86%
    22:00 -10°C° 0 mm 6 m/s 741 mmHg 86%
    23:00 -10°C° 0 mm 6 m/s 741 mmHg 86%

    Depois de amanhã, 20 Fevereiro, Quarta-feira

    Tempo Temperatura Precipitação Vento Pressão Humidade
    00:00 -10°C° 0 mm 6 m/s 740 mmHg 86%
    01:00 -10°C° 0 mm 6 m/s 740 mmHg 86%
    02:00 -9°C° 0 mm 6 m/s 739 mmHg 86%
    03:00 -9°C° 0 mm 7 m/s 738 mmHg 87%
    04:00 -9°C° 0 mm 7 m/s 738 mmHg 87%
    05:00 -9°C° 0 mm 7 m/s 737 mmHg 88%
    06:00 -8°C° 0 mm 7 m/s 737 mmHg 89%
    07:00 -8°C° 0 mm 7 m/s 736 mmHg 89%
    08:00 -8°C° 0 mm 7 m/s 736 mmHg 90%
    09:00 -7°C° 0 mm 7 m/s 736 mmHg 91%
    10:00 -6°C° 0 mm 7 m/s 736 mmHg 91%
    11:00 -4°C° 0 mm 7 m/s 735 mmHg 92%
    12:00 -4°C° 0.1 mm 7 m/s 735 mmHg 92%
    13:00 -3°C° 0.1 mm 6 m/s 735 mmHg 92%
    14:00 -3°C° 0.1 mm 6 m/s 735 mmHg 92%
    15:00 -3°C° 0.2 mm 6 m/s 734 mmHg 92%
    16:00 -3°C° 0.2 mm 6 m/s 734 mmHg 92%
    17:00 -2°C° 0.2 mm 5 m/s 734 mmHg 92%
    18:00 -2°C° 0 mm 5 m/s 734 mmHg 91%
    19:00 -2°C° 0 mm 5 m/s 734 mmHg 91%
    20:00 -2°C° 0 mm 5 m/s 734 mmHg 91%
    21:00 -3°C° 0 mm 6 m/s 734 mmHg 91%
    22:00 -2°C° 0 mm 6 m/s 733 mmHg 92%
    23:00 -2°C° 0 mm 7 m/s 733 mmHg 92%

    21 Fevereiro, Quinta-feira

    Tempo Temperatura Precipitação Vento Pressão Humidade
    00:00 -2°C° 0.1 mm 7 m/s 732 mmHg 92%
    01:00 -2°C° 0.1 mm 7 m/s 732 mmHg 91%
    02:00 -2°C° 0.1 mm 7 m/s 732 mmHg 91%
    03:00 -3°C° 0.3 mm 7 m/s 731 mmHg 88%
    04:00 -3°C° 0.3 mm 7 m/s 731 mmHg 85%
    05:00 -4°C° 0.3 mm 7 m/s 731 mmHg 82%
    06:00 -5°C° 0 mm 6 m/s 731 mmHg 83%
    07:00 -8°C° 0 mm 6 m/s 732 mmHg 85%
    08:00 -8°C° 0 mm 5 m/s 732 mmHg 86%
    09:00 -7°C° 0 mm 5 m/s 732 mmHg 85%
    10:00 -6°C° 0 mm 6 m/s 732 mmHg 84%
    11:00 -5°C° 0 mm 6 m/s 732 mmHg 83%
    12:00 -6°C° 0.1 mm 7 m/s 732 mmHg 83%
    13:00 -6°C° 0.1 mm 7 m/s 732 mmHg 83%
    14:00 -6°C° 0.1 mm 7 m/s 732 mmHg 83%
    15:00 -6°C° 0.1 mm 6 m/s 732 mmHg 82%
    16:00 -8°C° 0.1 mm 6 m/s 733 mmHg 80%
    17:00 -9°C° 0.1 mm 6 m/s 733 mmHg 78%
    18:00 -9°C° 0 mm 6 m/s 734 mmHg 80%
    19:00 -9°C° 0 mm 6 m/s 734 mmHg 82%
    20:00 -9°C° 0 mm 7 m/s 735 mmHg 84%
    21:00 -9°C° 0 mm 7 m/s 736 mmHg 84%
    22:00 -10°C° 0 mm 6 m/s 736 mmHg 84%
    23:00 -10°C° 0 mm 6 m/s 737 mmHg 84%

    22 Fevereiro, Sexta-feira

    Tempo Temperatura Precipitação Vento Pressão Humidade
    00:00 -10°C° 0 mm 6 m/s 737 mmHg 84%
    01:00 -11°C° 0 mm 6 m/s 738 mmHg 84%
    02:00 -11°C° 0 mm 6 m/s 739 mmHg 84%
    03:00 -12°C° 0 mm 6 m/s 739 mmHg 84%
    04:00 -12°C° 0 mm 6 m/s 740 mmHg 84%
    05:00 -14°C° 0 mm 6 m/s 740 mmHg 84%
    06:00 -14°C° 0 mm 6 m/s 741 mmHg 83%
    07:00 -15°C° 0 mm 6 m/s 741 mmHg 82%
    08:00 -15°C° 0 mm 7 m/s 742 mmHg 82%
    09:00 -15°C° 0 mm 7 m/s 742 mmHg 81%
    10:00 -16°C° 0 mm 8 m/s 743 mmHg 80%
    11:00 -16°C° 0 mm 8 m/s 743 mmHg 79%
    12:00 -16°C° 0 mm 8 m/s 744 mmHg 78%
    13:00 -16°C° 0 mm 8 m/s 744 mmHg 78%
    14:00 -15°C° 0 mm 8 m/s 744 mmHg 77%
    15:00 -16°C° 0 mm 8 m/s 745 mmHg 79%
    16:00 -15°C° 0 mm 7 m/s 745 mmHg 80%
    17:00 -15°C° 0 mm 6 m/s 746 mmHg 81%
    18:00 -15°C° 0 mm 6 m/s 746 mmHg 82%
    19:00 -15°C° 0 mm 6 m/s 747 mmHg 83%
    20:00 -16°C° 0 mm 6 m/s 747 mmHg 84%
    21:00 -16°C° 0 mm 6 m/s 748 mmHg 85%
    22:00 -15°C° 0 mm 6 m/s 748 mmHg 85%
    23:00 -15°C° 0 mm 6 m/s 749 mmHg 86%

    23 Fevereiro, Sábado

    Tempo Temperatura Precipitação Vento Pressão Humidade
    00:00 -16°C° 0 mm 6 m/s 749 mmHg 85%
    01:00 -15°C° 0 mm 5 m/s 750 mmHg 85%
    02:00 -17°C° 0 mm 5 m/s 750 mmHg 85%
    03:00 -17°C° 0 mm 5 m/s 750 mmHg 86%
    04:00 -17°C° 0 mm 5 m/s 751 mmHg 87%
    05:00 -18°C° 0 mm 5 m/s 751 mmHg 88%
    06:00 -17°C° 0 mm 4 m/s 752 mmHg 89%
    07:00 -17°C° 0 mm 4 m/s 752 mmHg 90%
    08:00 -17°C° 0 mm 4 m/s 753 mmHg 91%
    09:00 -15°C° 0 mm 4 m/s 753 mmHg 89%
    10:00 -14°C° 0 mm 4 m/s 753 mmHg 88%
    11:00 -12°C° 0 mm 3 m/s 754 mmHg 87%
    12:00 -10°C° 0 mm 3 m/s 753 mmHg 86%
    13:00 -8°C° 0 mm 2 m/s 753 mmHg 85%
    14:00 -8°C° 0 mm 2 m/s 752 mmHg 84%
    15:00 -8°C° 0 mm 2 m/s 752 mmHg 84%
    16:00 -8°C° 0 mm 2 m/s 753 mmHg 84%
    17:00 -9°C° 0 mm 2 m/s 753 mmHg 84%
    18:00 -9°C° 0 mm 2 m/s 752 mmHg 85%
    19:00 -9°C° 0 mm 3 m/s 752 mmHg 85%
    20:00 -9°C° 0 mm 3 m/s 752 mmHg 86%
    21:00 -9°C° 0 mm 3 m/s 752 mmHg 86%
    22:00 -9°C° 0 mm 3 m/s 751 mmHg 86%
    23:00 -10°C° 0 mm 4 m/s 751 mmHg 86%
    Mostrar mais